This is the latest recevied weather packets stored in our database for station/object KF4WSW-13. If no packets are shown the sender has not sent any weather packets the latest 1 day(s).
| Time | Temp. | Humidity | Pressure | Rain* | Wind** | Luminosity | Snow |
|---|---|---|---|---|---|---|---|
| 1777987387 | 23.89° C | 75% | 1013.8 hPa | 0 mm | 4.92 m/s, 100° | 379 W/m² | - |
| 1777987085 | 23.33° C | 75% | 1013.8 hPa | 0 mm | 2.68 m/s, 103° | 324 W/m² | - |
| 1777986782 | 23.33° C | 77% | 1013.7 hPa | 0 mm | 2.68 m/s, 185° | 289 W/m² | - |
| 1777986479 | 23.33° C | 77% | 1013.7 hPa | 0 mm | 2.68 m/s, 94° | 331 W/m² | - |
| 1777986185 | 22.78° C | 78% | 1013.7 hPa | 0 mm | 3.58 m/s, 88° | 290 W/m² | - |
| 1777985874 | 22.78° C | 78% | 1014 hPa | 0 mm | 1.79 m/s, 128° | 305 W/m² | - |
| 1777985572 | 22.22° C | 80% | 1013.9 hPa | 0 mm | 3.13 m/s, 92° | 276 W/m² | - |
| 1777985268 | 22.22° C | 80% | 1013.8 hPa | 0 mm | 2.24 m/s, 96° | 110 W/m² | - |
| 1777984965 | 22.22° C | 81% | 1013.8 hPa | 0 mm | 3.13 m/s, 119° | 101 W/m² | - |
| 1777984660 | 22.22° C | 80% | 1013.8 hPa | 0 mm | 2.68 m/s, 165° | 109 W/m² | - |
| 1777984357 | 22.22° C | 80% | 1013.6 hPa | 0 mm | 3.13 m/s, 113° | 262 W/m² | - |
| 1777984054 | 22.22° C | 81% | 1013.5 hPa | 0 mm | 1.79 m/s, 81° | 249 W/m² | - |
| 1777983751 | 21.67° C | 82% | 1013.9 hPa | 0 mm | 2.68 m/s, 93° | 207 W/m² | - |
| 1777983448 | 21.11° C | 83% | 1013.7 hPa | 0 mm | 2.24 m/s, 127° | 165 W/m² | - |
| 1777983144 | 21.11° C | 85% | 1013.9 hPa | 0 mm | 2.24 m/s, 108° | 153 W/m² | - |
| 1777982841 | 20.56° C | 86% | 1014 hPa | 0 mm | 2.68 m/s, 72° | 128 W/m² | - |
| 1777982537 | 20.56° C | 86% | 1014 hPa | 0 mm | 3.13 m/s, 105° | 124 W/m² | - |
| 1777982235 | 20° C | 87% | 1013.8 hPa | 0 mm | 2.68 m/s, 105° | 106 W/m² | - |
| 1777981933 | 20° C | 87% | 1013.8 hPa | 0 mm | 2.24 m/s, 102° | 75 W/m² | - |
| 1777981631 | 20° C | 87% | 1014.2 hPa | 0 mm | 2.68 m/s, 100° | 82 W/m² | - |
| 1777981326 | 20° C | 87% | 1013.9 hPa | 0 mm | 1.79 m/s, 105° | 74 W/m² | - |
| 1777981023 | 20° C | 87% | 1014 hPa | 0 mm | 1.79 m/s, 182° | 63 W/m² | - |
| 1777980720 | 20° C | 88% | 1013.7 hPa | 0 mm | 2.24 m/s, 69° | 52 W/m² | - |
| 1777980416 | 20° C | 88% | 1013.5 hPa | 0 mm | 2.68 m/s, 94° | 41 W/m² | - |
| 1777980114 | 20° C | 89% | 1013.6 hPa | 0 mm | 3.13 m/s, 107° | 32 W/m² | - |
* Rain latest hour (hover to see other rain measurements)
** Current wind speed in m/s (hover to see current wind gust speed)